Lid_Strength_Index
8 12 14 12 11 11 12 13 14 12 11 13 13 13 11 9 11 13 12 12 11 11 10 10 9 7 6 2 1 1 1 1 2 2 2 4 2 3 4 1 0 0 1 2
11 14 11 10 11 11 12 13 13 11 10 12 12 13 10 12 11 11 13 13 12 11 11 11 11 10 9 8 4 1 1 1 1 2 2 2 2 5 4 4 4 4 5 7
14 12 11 12 13 13 12 15 15 15 12 10 11 13 11 11 11 12 11 11 11 12 12 12 11 10 10 9 8 6 1 1 1 1 2 5 7 9 9 8 8 8 7 7
13 11 12 14 16 15 15 13 15 15 14 17 12 17 12 11 12 12 12 12 11 10 10 11 11 11 10 10 8 7 6 1 1 1 3 6 6 6 6 6 6 7 8 9
15 13 15 15 17 14 15 15 16 15 14 14 14 15 15 13 15 14 12 12 11 11 10 9 10 11 10 10 9 9 6 5 1 1 3 4 4 3 4 5 6 8 9 9
15 12 14 15 15 14 14 14 14 12 14 17 17 16 19 17 16 14 13 12 11 12 12 12 11 10 9 10 10 10 9 5 2 1 2 3 4 3 6 7 7 10 9 10
16 16 14 14 15 14 14 15 19 19 18 19 14 17 19 15 14 14 14 13 12 12 12 12 13 12 11 9 9 10 10 9 5 1 2 3 3 4 6 7 8 9 9 11
20 19 17 15 16 18 17 16 19 24 22 20 16 18 17 14 13 12 12 12 12 11 11 12 12 12 12 11 10 9 10 10 8 6 3 2 2 4 5 7 7 7 8 9
20 20 16 15 15 14 17 18 15 19 19 21 17 15 13 13 13 12 12 11 11 11 10 11 11 11 11 11 11 10 10 9 9 8 6 4 3 5 5 6 7 8 8 9
20 22 17 16 15 14 15 15 18 17 22 23 18 17 14 14 13 12 12 12 11 11 10 9 9 10 10 10 10 10 9 10 9 9 7 6 6 5 6 7 8 9 10 10
17 20 19 16 18 18 17 18 17 17 17 20 22 18 12 13 12 12 11 11 11 11 11 10 9 9 9 9 10 10 10 9 10 10 9 8 7 7 7 7 8 8 10 11
17 19 21 19 16 15 15 18 17 19 21 18 19 20 11 10 11 11 11 10 10 10 10 10 10 10 9 9 9 10 10 9 10 10 10 9 9 9 8 9 10 10 10 11
16 20 23 20 18 16 18 15 15 16 17 20 21 18 11 11 11 10 11 10 9 9 8 9 10 10 10 10 9 10 9 10 9 10 10 10 10 10 10 10 10 10 10 11
14 18 20 22 19 17 18 16 15 17 19 18 18 17 13 12 12 10 10 9 9 9 9 9 10 10 9 9 9 9 10 9 9 9 10 11 11 11 11 11 11 11 11 12
14 20 18 17 16 16 16 16 16 16 16 19 17 16 14 12 11 10 9 9 10 9 9 9 8 8 9 9 9 9 9 9 9 9 10 10 11 11 11 12 12 12 12 12
15 19 19 21 17 17 18 16 15 15 15 15 15 15 11 9 9 10 9 9 10 9 9 8 8 7 7 8 9 9 9 9 8 10 10 10 10 11 11 12 12 12 13 13
15 16 19 21 21 22 22 18 16 15 13 14 16 13 10 10 10 10 8 9 9 9 8 8 8 7 7 7 7 9 9 8 9 8 9 9 10 11 11 11 12 12 12 13
15 16 17 20 21 25 16 13 14 14 13 12 12 11 10 10 9 8 7 8 8 7 7 7 7 7 6 6 7 7 8 9 9 9 9 10 10 11 12 12 12 12 12 13
12 14 17 20 21 19 16 14 14 15 15 11 12 11 10 9 9 9 7 6 7 6 7 6 6 6 6 7 7 7 8 9 9 9 10 10 11 11 11 12 13 13 13 14
15 13 16 23 22 23 15 13 11 12 18 11 11 11 11 10 14 11 7 6 6 5 6 7 6 6 6 7 7 7 8 8 9 9 10 10 10 11 11 11 11 12 12 13
18 17 18 18 19 17 13 11 11 19 16 11 10 10 10 11 10 8 7 7 5 5 6 5 6 7 7 7 7 8 8 9 8 8 9 10 10 10 11 10 11 11 12 12
18 19 20 19 21 22 10 13 15 11 11 11 10 9 10 9 8 8 7 7 6 6 6 6 7 7 6 5 6 8 8 8 8 9 10 9 9 9 9 10 10 11 11 12
18 13 14 14 15 10 10 10 8 9 10 10 9 9 9 9 9 8 8 7 6 6 6 6 7 7 6 6 6 8 9 9 9 10 10 10 9 8 9 10 10 11 11 11
13 11 13 12 12 10 9 8 8 8 9 9 8 8 8 9 8 8 8 7 7 6 6 7 7 8 8 8 9 10 10 9 10 12 11 10 10 9 8 9 10 10 10 10
10 11 12 12 11 9 9 8 8 8 8 8 8 8 8 8 8 8 8 7 7 8 8 8 9 9 9 10 10 10 10 10 11 12 12 11 10 9 8 8 9 9 9 8
9 11 12 12 9 8 9 7 7 8 9 8 8 8 7 7 8 8 8 8 9 10 11 10 10 12 12 12 12 10 12 13 13 12 12 11 11 11 10 9 9 8 8 8